Location: New Canada
(47.1017°N, 68.5042°W)
Time: 17:51:19
(UTC+00:00)

KKS-1 - Pass Details

Date: 29 April 2024
Orbit: 628 x 639 km, 98.1° (Epoch: 21 May)

Event Time Altitude Azimuth Distance (km) Brightness Sun altitude
Rises 02:38:54 0° 30° (NNE) 2,956 ? -23.4°
Reaches altitude 10° 02:41:58 10° 53° (NE) 2,039 ? -23.6°
Enters shadow 02:43:09 14° 67° (ENE) 1,810 ? -23.7°
